TimeMDT,TemperatureF,Dew PointF,Humidity,Sea Level PressureIn,VisibilityMPH,Wind Direction,Wind SpeedMPH,Gust SpeedMPH,PrecipitationIn,Events,Conditions,WindDirDegrees,DateUTC
12:51 AM,39.0,35.1,86,29.95,10.0,NW,6.9,-,N/A,,Clear,320,2012-11-01 06:51:00
1:51 AM,43.0,35.1,74,29.91,10.0,SE,3.5,-,N/A,,Clear,130,2012-11-01 07:51:00
2:51 AM,39.9,35.1,83,29.90,10.0,Calm,Calm,-,N/A,,Clear,0,2012-11-01 08:51:00
3:51 AM,39.0,34.0,82,29.91,10.0,Calm,Calm,-,N/A,,Clear,0,2012-11-01 09:51:00
4:51 AM,39.0,34.0,82,29.89,10.0,Variable,3.5,-,N/A,,Clear,0,2012-11-01 10:51:00
5:51 AM,37.0,33.1,86,29.90,10.0,North,3.5,-,N/A,,Clear,360,2012-11-01 11:51:00
6:51 AM,37.9,33.1,83,29.93,10.0,East,4.6,-,N/A,,Clear,90,2012-11-01 12:51:00
7:51 AM,37.0,32.0,82,29.94,10.0,Calm,Calm,-,N/A,,Clear,0,2012-11-01 13:51:00
8:51 AM,39.0,34.0,82,29.95,10.0,WNW,5.8,-,N/A,,Clear,300,2012-11-01 14:51:00
9:51 AM,46.9,37.0,68,29.96,10.0,NNE,8.1,-,N/A,,Clear,20,2012-11-01 15:51:00
10:51 AM,55.9,36.0,47,29.94,10.0,Calm,Calm,-,N/A,,Clear,0,2012-11-01 16:51:00
11:51 AM,60.1,36.0,41,29.92,10.0,North,9.2,-,N/A,,Clear,10,2012-11-01 17:51:00
12:51 PM,62.1,30.0,30,29.93,10.0,North,6.9,-,N/A,,Clear,350,2012-11-01 18:51:00
1:51 PM,63.0,27.0,26,29.91,10.0,Calm,Calm,-,N/A,,Clear,0,2012-11-01 19:51:00
2:51 PM,62.1,28.0,28,29.92,10.0,SW,8.1,24.2,0.00,Rain,Light Rain,220,2012-11-01 20:51:00
3:51 PM,63.0,28.0,27,29.90,10.0,SSW,11.5,17.3,0.00,,Overcast,200,2012-11-01 21:51:00
4:51 PM,62.1,28.0,28,29.91,10.0,SSW,9.2,-,N/A,,Mostly Cloudy,210,2012-11-01 22:51:00
5:51 PM,57.9,30.0,35,29.93,10.0,NW,12.7,-,N/A,,Scattered Clouds,310,2012-11-01 23:51:00
6:51 PM,53.1,37.0,55,29.97,10.0,North,12.7,-,N/A,,Scattered Clouds,360,2012-11-02 00:51:00
7:51 PM,50.0,37.9,63,30.01,10.0,North,6.9,-,N/A,,Overcast,360,2012-11-02 01:51:00
8:51 PM,48.0,37.9,68,30.02,10.0,NW,3.5,-,N/A,,Overcast,320,2012-11-02 02:51:00
11:51 PM,46.0,37.9,73,30.00,10.0,NE,4.6,-,N/A,,Overcast,50,2012-11-02 05:51:00